loading
DOY 203 | 2024-07-21T11:30:34Z

OBJECT A, 60203

Orbit data source: Space-Track

OBJECT A, 60203 is a satellite owned by UWash (US) in LEO that was launched on Thu, 04 Jul 2024 UTC via a Firefly Alpha launch vehicle from the Air Force Western Test Range (AFWTR). Unknown objects in Earth's orbit typically refer to objects detected orbiting the Earth but have not yet been identified or cataloged. These objects could be anything from previously untracked satellites, spent rocket stages, debris from satellite collisions, or even natural meteoroids temporarily captured by Earth's gravity.

Loading next visibility...
Loading greatness...
OBJECT A details
NORAD ID60203
COSPAR ID
2024-125A
Orbit
LEO
Last TLE update4 days ago
Origin
Flag of USUWash (US)
ManufacturerUWash
BusCubesat 2U
MotorUnknown
Mass2 kg wet, 2 kg dry
Launch date (UTC)
2024-07-04 (2 weeks ago)
Launch vehicle
Firefly Alpha
Launch site
Air Force Western Test Range (AFWTR)
Object typeUnknown
Radar Cross SectionLarge (>1 m²)
Predictive object data (real-time)
Latitude62.54418°
Longitude62.40305°
Altitude530.939 km
Speed7.596 km/s
Apparent Right ascension09h 54m 50s
Apparent Declination35° 09' 03"
Sunlit
Object is in daylight
Predictive observer data (real-time)
Local Sidereal Time00:28:59
Azimuth30.879° NE
Elevation-6.955°
Doppler factor1
Orbital elements
Apogee522.749 km
Perigee486.273 km
Semi-major axis6,882.648 km
Eccentricity0.0026498
Inclination97.3222°
RAAN51.6264°
Arg. of periapsis214.335°
True anomaly145.78831°
Mean anomaly145.6173°
Mean motion3.8011 °/min
BSTAR0.00073163
Period94.71 mins
Definitive object data (Epoch: 2024-07-17T02:55:07.509Z)
Latitude-0.00005°
Longitude72.41444°
Altitude525.717 km
Speed7.592 km/s
True Right ascension03h 26m 30s
True Declination0° 00' 00"
Sunlit
Object was in daylight at TLE epoch
TLE from 4 days ago
0 OBJECT A
1 60203U 24125A   24199.12161469  .00015599  00000-0  73163-3 0  9992
2 60203  97.3222  51.6264 0026498 214.3350 145.6173 15.19434640  1969
Epoch: 2024-07-17T02:55Z
No data available

OBJECT A Visibility forecast

Observer location: 39.9160978°, -105.1181434

OBJECT A is not visible in the next 10 days
Span
Click to sort rows by Start time (UTC) header in descending order
Start Az.
Max El. time (UTC)
Max El. Az.
Max El.
End time (UTC)
End Az.